Location: Chevoux
(46.3801°N, 4.9476°E)
Time: 04:06:57
(UTC+00:00)

Envisat - Pass Details

Date: 02 December 2021
Orbit: 764 x 766 km, 98.2° (Epoch: 16 January)

Event Time Altitude Azimuth Distance (km) Brightness Sun altitude
Rises 05:05:21 0° 11° (N) 3,245 6.2 -19.8°
Reaches altitude 10° 05:07:41 10° 8° (N) 2,314 5.4 -19.4°
Maximum altitude 05:12:43 66° 288° (WNW) 834 2.9 -18.5°
Drops below altitude 10° 05:17:44 10° 206° (SSW) 2,296 5.3 -17.7°
Sets 05:20:03 0° 204° (SSW) 3,217 6.1 -17.3°
